This is the latest recevied weather packets stored in our database for station/object LY3PGO-4. If no packets are shown the sender has not sent any weather packets the latest 1 day(s).
| Time | Temp. | Humidity | Pressure | Rain* | Wind** | Luminosity | Snow |
|---|---|---|---|---|---|---|---|
| 1778005699 | 16.11° C | 55% | 1007.5 hPa | 0 mm | 0.89 m/s, 180° | - | - |
| 1778005092 | 16.11° C | 54% | 1007.4 hPa | 0 mm | 0.45 m/s, 157° | - | - |
| 1778004486 | 16.11° C | 54% | 1007.4 hPa | 0 mm | 0.89 m/s, 157° | - | - |
| 1778003880 | 16.67° C | 54% | 1007.4 hPa | 0 mm | 0.89 m/s, 225° | - | - |
| 1778003278 | 16.67° C | 54% | 1007.5 hPa | 0 mm | 0 m/s | - | - |
| 1778002668 | 16.67° C | 54% | 1007.6 hPa | 0 mm | 0.89 m/s, 202° | - | - |
| 1778002066 | 16.67° C | 53% | 1007.8 hPa | 0 mm | 0.89 m/s, 202° | - | - |
| 1778001456 | 17.22° C | 57% | 1007.5 hPa | 0 mm | 0.89 m/s, 180° | - | - |
| 1778000849 | 17.22° C | 61% | 1007.6 hPa | 0 mm | 0.89 m/s, 157° | - | - |
| 1778000243 | 17.78° C | 58% | 1007.5 hPa | 0 mm | 0 m/s | - | - |
| 1777999637 | 17.78° C | 55% | 1007.7 hPa | 0 mm | 0.89 m/s, 247° | - | - |
| 1777999034 | 17.78° C | 53% | 1007.6 hPa | 0 mm | 0.89 m/s, 270° | - | - |
| 1777998425 | 18.33° C | 54% | 1007.7 hPa | 0 mm | 0.89 m/s, 247° | - | - |
| 1777997820 | 18.33° C | 54% | 1007.7 hPa | 0 mm | 0 m/s | - | - |
| 1777997212 | 18.33° C | 54% | 1007.8 hPa | 0 mm | 0.45 m/s, 202° | - | - |
| 1777996606 | 18.33° C | 53% | 1007.6 hPa | 0 mm | 0.89 m/s, 157° | - | - |
| 1777996003 | 18.33° C | 53% | 1007.6 hPa | 0 mm | 0.89 m/s, 202° | - | - |
| 1777995393 | 18.33° C | 52% | 1007.7 hPa | 0 mm | 4.47 m/s, 247° | - | - |
| 1777994787 | 18.89° C | 52% | 1007.6 hPa | 0 mm | 3.13 m/s, 247° | - | - |
| 1777994181 | 18.89° C | 53% | 1007.8 hPa | 0 mm | 2.24 m/s, 157° | - | - |
| 1777993576 | 18.89° C | 55% | 1007.7 hPa | 0 mm | 1.34 m/s, 180° | - | - |
| 1777992971 | 18.33° C | 53% | 1007.8 hPa | 0 mm | 2.68 m/s, 180° | - | - |
| 1777992364 | 18.89° C | 55% | 1007.9 hPa | 0 mm | 1.34 m/s, 225° | - | - |
| 1777991756 | 18.33° C | 58% | 1008.1 hPa | 0 mm | 1.34 m/s, 225° | - | - |
| 1777991150 | 17.78° C | 58% | 1008.2 hPa | 0 mm | 1.34 m/s, 225° | - | - |
* Rain latest hour (hover to see other rain measurements)
** Current wind speed in m/s (hover to see current wind gust speed)